HK6RM-16 Weather Reports


Display with metric or nautical units.
time (UTC)temp
F
wind
direction
speed
MPH
gust
MPH
rain 1hr
in
rain 24hr
in
rain mn
in
humidity
%
barometer
mb
20260504140518 61 120 3.0 0.0 0.00 0.00 0.00 10 1016.0
20260504130111 57 0 1.0 0.0 0.00 0.00 0.00 10 1017.0
20260504100500 48 110 4.0 3.0 0.00 0.00 0.00 82 1017.0
20260504081253 49 112 4.0 3.0 0.00 0.00 0.00 82 1017.0
20260504044445 51 111 3.0 2.0 0.00 0.00 0.00 82 1018.0
20260504042844 50 108 4.0 3.0 0.00 0.00 0.00 82 1018.0
20260504041244 51 108 4.0 3.0 0.00 0.00 0.00 82 1018.0
20260504035643 50 110 4.0 3.0 0.02 0.00 0.00 82 1018.0
20260504034042 50 107 5.0 3.0 0.00 0.00 0.00 82 1018.0
20260504032428 50 107 5.0 3.0 0.00 0.00 0.00 82 1018.0
20260504030823 50 107 5.0 3.0 0.00 0.00 0.00 82 1018.0
20260504025222 50 107 5.0 3.0 0.00 0.00 0.00 82 1018.0
20260504023622 50 107 5.0 3.0 0.00 0.00 0.00 82 1018.0
20260504022021 51 107 5.0 3.0 0.00 0.00 0.00 82 1017.0
20260504020420 52 107 5.0 3.0 0.00 0.00 0.00 82 1017.0
20260504014819 52 107 5.0 3.0 0.00 0.00 0.00 82 1017.0
20260504013216 52 107 5.0 3.0 0.00 0.00 0.00 81 1017.0
20260504011614 51 89 1.0 1.0 0.00 0.00 0.00 79 1016.0
20260504010013 51 89 1.0 1.0 0.00 0.00 0.00 79 1016.0
20260504004413 51 89 1.0 1.0 0.00 0.00 0.00 79 1016.0
20260504002812 52 89 1.0 1.0 0.00 0.00 0.00 77 1015.0
20260504001211 53 89 1.0 1.0 0.00 0.00 0.00 77 1015.0
20260503235611 54 89 1.0 1.0 0.00 0.00 0.00 77 1015.0
20260503234010 55 89 1.0 1.0 0.00 0.00 0.00 77 1014.0
20260503230807 56 89 1.0 1.0 0.00 0.00 0.00 77 1013.0
20260503225203 56 89 1.0 1.0 0.00 0.00 0.00 77 1013.0
20260503223600 57 89 1.0 1.0 0.00 0.00 0.00 77 1013.0
20260503221959 58 41 0.0 3.0 0.00 0.00 0.00 77 1012.0
20260503220356 56 300 8.0 0.0 0.00 0.00 0.00 77 1012.0
20260503214756 57 300 8.0 0.0 0.00 0.00 0.00 77 1012.0
20260503213155 58 300 8.0 0.0 0.00 0.00 0.00 77 1012.0
20260503211555 59 300 8.0 0.0 0.00 0.00 0.00 77 1012.0
20260503205954 60 300 8.0 0.0 0.00 0.00 0.00 77 1012.0
20260503204354 61 300 8.0 0.0 0.00 0.00 0.00 77 1012.0
20260503202750 62 300 8.0 0.0 0.00 0.00 0.00 76 1012.0
20260503201146 62 300 8.0 0.0 0.00 0.00 0.00 74 1012.0
20260503195544 63 300 8.0 0.0 0.00 0.00 0.00 74 1012.0
20260503193943 64 300 8.0 0.0 0.00 0.00 0.00 74 1012.0
20260503192342 64 300 8.0 0.0 0.00 0.00 0.00 74 1012.0
20260503190742 64 300 8.0 0.0 0.00 0.00 0.00 74 1012.0
20260503185141 64 300 8.0 0.0 0.00 0.00 0.00 75 1012.0
20260503183541 65 300 8.0 0.0 0.00 0.00 0.00 75 1013.0
20260503181939 65 300 8.0 0.0 0.00 0.00 0.00 75 1014.0
20260503180338 65 300 8.0 0.0 0.00 0.00 0.00 76 1014.0
20260503174738 63 300 8.0 0.0 0.00 0.00 0.00 79 1014.0
20260503173132 64 300 8.0 0.0 0.00 0.00 0.00 79 1014.0
20260503171530 65 300 8.0 0.0 0.00 0.00 0.00 79 1015.0
20260503150722 60 0 1.0 0.0 0.00 0.00 0.00 78 1017.0